Tracking 27107 objects as of 21-Mar-2023
HD Live streaming from Space Station
objects crossing your sky now

COSMOS 1823 DEB

Track COSMOS 1823 DEB now!
10-day predictions


NORAD ID: 18800
Int'l Code: 1987-020AL
Perigee: 1,478.0 km
Apogee: 1,558.9 km
Inclination: 73.6 °
Period: 116.2 minutes
Semi major axis: 7889 km
RCS: 0.043 m2 (small)
Launch date: February 20, 1987
Source: Commonwealth of Independent States (former USSR) (CIS)
Launch site: PLESETSK MISSILE AND SPACE COMPLEX (PKMTR)

Note: This is SATELLITE DEBRIS
Your satellite tracking list
Your tracking list is empty




NASA's NSSDC Master Catalog

Two Line Element Set (TLE):
1 18800U 87020AL  23079.76944063  .00000044  00000-0  46369-3 0  9993
2 18800  73.5889 269.8243 0051275 254.3515 117.3476 12.38897411594076
Source of the keplerian elements: AFSPC